SEEDS II (CO-66)

Last updated on Mon Sep 15 2025 00:03:09 GMT+0000 (Coordinated Universal Time)

1 32791U 08021J 25256.89919046 .00011650 00000+0 52745-3 0 9997 2 32791 97.7373 239.2810 0004105 154.2699 205.8741 15.21047298945128
UTC large
Height (km)
Speed (km/s)
/
Latitude / Longitude
Inclination (degrees)
Orbital Period (minutes)
Azimuth
Elevation
Range (km)
Doppler Factor

Next 0 passes for location: London (51.5072 / 0.1276)

Sorry there are no passes over London.